User: anonymous   Login
Location: Donald C. Martin Observatory
(38.3885°N, 82.3916°W)
Time: 05:55:18
(UTC-04:00)
Language:

Cosmos 1484 Rocket - Orbit

View from above orbital plane
View from above orbital plane
View from above satellite
View from above satellite

Ground track
Ground track

The orbit data is extracted from the following two-line orbital elements,

1 14208U 83075B   17114.96875242 +.00001030 +00000-0 +65590-4 0  9998
2 14208 097.3424 127.7181 0038246 316.6492 043.1731 15.10346606839176
Epoch (UTC): 24 April 2017 23:15:00
Eccentricity: 0.0038246
inclination: 97.3424°
perigee height: 509 km
apogee height: 561 km
right ascension of ascending node: 127.7181°
argument of perigee: 316.6492°
revolutions per day: 15.10346606
mean anomaly at epoch: 43.1731°
orbit number at epoch: 83917

The dashed part of the orbit path shows where the satellite is in the earth's shadow,  

DLR